Tracking 27420 objects as of 10-Jun-2023
HD Live streaming from Space Station
objects crossing your sky now

STARLINK-2381

Track STARLINK-2381 now!
10-day predictions
STARLINK-2381 is classified as:


NORAD ID: 47800
Int'l Code: 2021-018P
Perigee: 553.7 km
Apogee: 554.9 km
Inclination: 53.1 °
Period: 95.6 minutes
Semi major axis: 6925 km
RCS: Unknown
Launch date: March 11, 2021
Source: United States (US)
Launch site: AIR FORCE EASTERN TEST RANGE (AFETR)
Your satellite tracking list
Your tracking list is empty




NASA's NSSDC Master Catalog

Two Line Element Set (TLE):
1 47800U 21018P   23160.99189719  .00021658  00000-0  14673-2 0  9991
2 47800  53.0545  57.3965 0000885  63.9823 296.1257 15.06428264125255
Source of the keplerian elements: AFSPC